Location: Arclight Observatory
(36.5667°N, 87.3333°W)
Time: 18:13:50
(UTC-06:00)

Hubble Space Telescope - Visible Passes

Search period start: 22 November 2017 00:00
Search period end: 02 December 2017 00:00
Orbit: 537 x 541 km, 28.5° (Epoch: 22 November)

Date Brightness Start Highest point End Pass type
(mag) Time Alt. Az. Time Alt. Az. Time Alt. Az.
22 Nov 2.4 04:26:19 26° SSE 04:26:19 26° SSE 04:29:22 10° ESE visible
22 Nov 2.8 06:03:33 10° WSW 06:06:35 20° SSW 06:09:37 10° SE visible
23 Nov 2.7 04:16:45 23° SSE 04:16:45 23° SSE 04:19:04 10° SE visible
23 Nov 2.9 05:53:29 10° WSW 05:56:17 18° SSW 05:59:03 10° SSE visible
24 Nov 3.1 04:07:10 18° SE 04:07:10 18° SE 04:08:44 10° SE visible
24 Nov 3.0 05:43:31 10° SW 05:45:58 15° SSW 05:48:23 10° SSE visible
25 Nov 3.5 03:57:36 14° SE 03:57:36 14° SE 03:58:22 10° SE visible
25 Nov 3.1 05:33:44 10° SW 05:35:37 13° SSW 05:37:31 10° S visible
26 Nov 3.2 05:24:26 10° SSW 05:25:17 11° SSW 05:26:08 10° S visible
